sat.trackr.live / text

‹ back to catalog

STARLINK-31113

NORAD 58668 · 2023-211B

PAYLOAD ACTIVE UNKNOWN

§ Identity

Operator
Country
US
Launch date
2023-12-29
Launch site
AFETR
Launch vehicle
Mass (kg)
RCS (m²)

Purposes: comms

External: N2YO · Heavens-Above · Gunter

§ Orbital elements

Epoch: 2026-09-19T19:01:37.884576Z

Period
94.27 min
Inclination
43.0049°
Eccentricity
0.0001499
Mean motion
15.27578192 rev/d
Perigee alt
482.0 km
Apogee alt
484.1 km
Semi-major
6,861.2 km
B*
1.4063e-5
RAAN
68.7884°
Arg perigee
267.6115°
Mean anomaly
92.4566°
Rev number
15,215

§ Raw data

STARLINK-311131 58668U 23211B   26262.79279959  .00000125  00000+0  14063-4 0  99922 58668  43.0049  68.7884 0001499 267.6115  92.4566 15.27578192152150

JSON: /api/v1/satellites/58668 · /tle

For live sub-satellite position, see the globe view (requires WebGL).

§ Visibility from observer

Set your observer location to see the next 7 days of passes ≥ 10°. The values pass through the URL so the page stays shareable.

No JS? Fill the form by hand. The geolocation button needs JavaScript.